| 
				
				
				
					
						
					 | 
				
				
				
					
					
					Asteroid 2011 TB
					
					
					
					
						
					
					
						
							(Preview)
						
						
						
						
							
						
							
								Orbital elements:
2011 TB                                                  Earth MOID = 0.0509 AU
Epoch 2011 Aug. 27.0 TT = JDT 2455800.5                 MPC
M   0.97646              (2000.0)            P               Q
n   0.27121174     Peri.  126.27036     +0.73261137     +0.67974449
a   2.3637256      Node   191.05502     -0.66828333     +0.70858111
e   0.6026873      Incl.   10.53012     -0.12914320     +0.18936802
P   3.63           H   23.8           G   0.... 
							 
							
						 
						
					
				 | 
				
					
						Blobrana
					 | 
				
				
					
						0
					 | 
				
				
				
					
						
					 | 
				
				
					
						
					 | 
				
			
		
			
			
				
				
					
						 
					 | 
				
				
				
					
						
					 | 
				
				
				
					
					
					Asteroid 2011 SC191
					
					
					
					
						
					
					
						
							(Preview)
						
						
						
						
							
						
							
								Orbital elements:
2011 SC191
Epoch 2011 Aug. 27.0 TT = JDT 2455800.5                 MPC
M 161.34112              (2000.0)            P               Q
n   0.53940109     Peri.  190.20291     -0.96463524     +0.26212072
a   1.4946110      Node     5.24571     -0.21533621     -0.72288650
e   0.0458443      Incl.   17.68717     -0.15201700     -0.63931826
P   1.83           H   19.4           G   0.15           U   8 MPEC 2011 - T0... 
							 
							
						 
						
					
				 | 
				
					
						Blobrana
					 | 
				
				
					
						0
					 | 
				
				
				
					
						
					 | 
				
				
					
						
					 | 
				
			
		
			
			
				
				
					
						 
					 | 
				
				
				
					
						
					 | 
				
				
				
					
					
					Asteroid 2011 SD191
					
					
					
					
						
					
					
						
							(Preview)
						
						
						
						
							
						
							
								Orbital elements:
2011 SD191                                               Earth MOID = 0.2298 AU
Epoch 2011 Sept. 16.0 TT = JDT 2455820.5                MPC
M  42.55773              (2000.0)            P               Q
n   0.51733281     Peri.   72.68320     +0.83799612     +0.37617993
a   1.5368189      Node   263.70224     -0.51062227     +0.79603764
e   0.2924511      Incl.   23.43361     +0.19242506     +0.47414421
P   1.91           H   17.... 
							 
							
						 
						
					
				 | 
				
					
						Blobrana
					 | 
				
				
					
						0
					 | 
				
				
				
					
						
					 | 
				
				
					
						
					 | 
				
			
		
			
			
				
				
					
						 
					 | 
				
				
				
					
						
					 | 
				
				
				
					
					
					Asteroid 2011 SE191
					
					
					
					
						
					
					
						
							(Preview)
						
						
						
						
							
						
							
								Orbital elements:
2011 SE191                                               Earth MOID = 0.0181 AU
Epoch 2011 Aug. 27.0 TT = JDT 2455800.5                 MPC
M   1.28361              (2000.0)            P               Q
n   0.24097105     Peri.  309.82652     +0.70900651     +0.70500178
a   2.5575618      Node     5.42165     -0.58044265     +0.59693857
e   0.6500547      Incl.   10.24254     -0.40049482     +0.38293190
P   4.09           H   25.1           G   0... 
							 
							
						 
						
					
				 | 
				
					
						Blobrana
					 | 
				
				
					
						0
					 | 
				
				
				
					
						
					 | 
				
				
					
						
					 | 
				
			
		
			
			
				
				
					
						 
					 | 
				
				
				
					
						
					 | 
				
				
				
					
					
					Asteroid 2011 SO189
					
					
					
					
						
					
					
						
							(Preview)
						
						
						
						
							
						
							
								Orbital elements:
2011 SO189                                               Earth MOID = 0.0018 AU
Epoch 2011 Aug. 27.0 TT = JDT 2455800.5                 MPC
M   2.92740              (2000.0)            P               Q
n   0.34126752     Peri.  307.32662     +0.63969612     +0.76862124
a   2.0280224      Node     2.44967     -0.67937352     +0.56735783
e   0.5726255      Incl.    4.29808     -0.35950033     +0.29551055
P   2.89           H   26.5           G   0.... 
							 
							
						 
						
					
				 | 
				
					
						Blobrana
					 | 
				
				
					
						0
					 | 
				
				
				
					
						
					 | 
				
				
					
						
					 | 
				
			
		
			
			
				
				
					
						 
					 | 
				
				
				
					
						
					 | 
				
				
				
					
					
					Asteroid 2011 SN189
					
					
					
					
						
					
					
						
							(Preview)
						
						
						
						
							
						
							
								Orbital elements:
2011 SN189                                               Earth MOID = 0.0786 AU
Epoch 2011 Aug. 27.0 TT = JDT 2455800.5                 MPC
M 345.80313              (2000.0)            P               Q
n   0.51622248     Peri.  356.45958     +0.99972185     -0.01069111
a   1.5390218      Node     4.32398     +0.02163604     +0.77048994
e   0.2976415      Incl.   16.18964     -0.00938589     +0.63736250
P   1.91           H   25.6... 
							 
							
						 
						
					
				 | 
				
					
						Blobrana
					 | 
				
				
					
						0
					 | 
				
				
				
					
						
					 | 
				
				
					
						
					 | 
				
			
		
			
			
				
				
					
						 
					 | 
				
				
				
					
						
					 | 
				
				
				
					
					
					Asteroid 2011 SM189
					
					
					
					
						
					
					
						
							(Preview)
						
						
						
						
							
						
							
								Orbital elements:
2011 SM189                                               Earth MOID = 0.0611 AU
Epoch 2011 Aug. 27.0 TT = JDT 2455800.5                 MPC
M   1.11938              (2000.0)            P               Q
n   0.25550367     Peri.  132.18503     +0.79775722     +0.60242908
a   2.4596385      Node   190.85605     -0.58564764     +0.76395954
e   0.5935828      Incl.    7.85545     -0.14352793     +0.23118179
P   3.86           H   24.7           G... 
							 
							
						 
						
					
				 | 
				
					
						Blobrana
					 | 
				
				
					
						0
					 | 
				
				
				
					
						
					 | 
				
				
					
						
					 | 
				
			
		
			
			
				
				
					
						 
					 | 
				
				
				
					
						
					 | 
				
				
				
					
					
					Asteroid 2011 SG189
					
					
					
					
						
					
					
						
							(Preview)
						
						
						
						
							
						
							
								Orbital elements:
2011 SG189                                               Earth MOID = 0.2385 AU
Epoch 2011 Aug. 27.0 TT = JDT 2455800.5                 MPC
M  13.49910              (2000.0)            P               Q
n   0.29139986     Peri.  276.62198     +0.38841988     +0.89627928
a   2.2532523      Node    20.75703     -0.40310321     +0.37414213
e   0.6045545      Incl.   37.15279     -0.82863611     +0.23811997
P   3.38           H   20.3... 
							 
							
						 
						
					
				 | 
				
					
						Blobrana
					 | 
				
				
					
						0
					 | 
				
				
				
					
						
					 | 
				
				
					
						
					 | 
				
			
		
			
			
				
				
					
						 
					 | 
				
				
				
					
						
					 | 
				
				
				
					
					
					Asteroid 2011 SJ189
					
					
					
					
						
					
					
						
							(Preview)
						
						
						
						
							
						
							
								Orbital elements:
2011 SJ189                                               Earth MOID = 0.1548 AU
Epoch 2011 Aug. 27.0 TT = JDT 2455800.5                 MPC
M 338.80502              (2000.0)            P               Q
n   0.38410218     Peri.    8.10646     +0.85233823     -0.52200498
a   1.8742961      Node    23.44667     +0.47519630     +0.74735266
e   0.3864621      Incl.    4.62716     +0.21842164     +0.41106544
P   2.57           H   22.6           G   0...                     
							 
							
						 
						
					
				 | 
				
					
						Blobrana
					 | 
				
				
					
						0
					 | 
				
				
				
					
						
					 | 
				
				
					
						
					 | 
				
			
		
			
			
				
				
					
						 
					 | 
				
				
				
					
						
					 | 
				
				
				
					
					
					Asteroid 2011 SL189
					
					
					
					
						
					
					
						
							(Preview)
						
						
						
						
							
						
							
								Orbital elements:
2011 SL189                                               Earth MOID = 0.0381 AU
Epoch 2011 Aug. 27.0 TT = JDT 2455800.5                 MPC
M 340.07338              (2000.0)            P               Q
n   0.27361383     Peri.   62.89339     +0.63109506     -0.77568899
a   2.3498710      Node   347.97161     +0.70282121     +0.57454680
e   0.5650046      Incl.    1.39146     +0.32827027     +0.26115621
P   3.60           H   24.9...                                   
							 
							
						 
						
					
				 | 
				
					
						Blobrana
					 | 
				
				
					
						0
					 | 
				
				
				
					
						
					 | 
				
				
					
						
					 | 
				
			
		
			
			
				
				
					
						 
					 | 
				
				
				
					
						
					 | 
				
				
				
					
					
					Asteroid 2011 SH189
					
					
					
					
						
					
					
						
							(Preview)
						
						
						
						
							
						
							
								Orbital elements:
2011 SH189                                               Earth MOID = 0.1079 AU
Epoch 2011 Aug. 27.0 TT = JDT 2455800.5                 MPC
M 311.18381              (2000.0)            P               Q
n   0.72637796     Peri.  216.80161     +0.76995777     -0.63807415
a   1.2256344      Node   182.86255     +0.60722306     +0.73515732
e   0.1062210      Incl.    5.90646     +0.19607443     +0.22892160
P   1.36           H   24....                                   
							 
							
						 
						
					
				 | 
				
					
						Blobrana
					 | 
				
				
					
